Погода в Джеффрис-Бей

ЮАР     34°02′51″S   24°55′13″E
темп.,
°C
ветер,
м/с
пор.,
м/с
влажн.,
%
обл.,
%
осадки,
мм/ч
давл.,
гПа
погр.,
м
20 апреля, вт
вт2023:00+16всв5879100 0.1 1030783
02:00+17всв6117999 0.3 1028730
05:00+16св6128012 0.0 1026681
08:00+17всв7137791 0.0 1026921
11:00+20всв8106458 0.0 10241163
14:00+23в676078 0.3 1020896
17:00+22в7968100 0.3 1019479
20:00+20всв69795 0.6 1019407
21 апреля, ср
ср2123:00+18всв45845 0.0 1019208
02:00+18всв238428 0.0 1017161
05:00+18ссв2282100 0.0 1017138
08:00+19св127998 0.1 1018150
11:00+21в3572100 0.4 1018391
14:00+24вюв7870100 0.4 1017714
17:00+23вюв8118198 0.0 1018751
20:00+21в91387100 0.4 1020836
22 апреля, чт
чт2223:00+21в8128598 0.2 1020903
02:00+20в91288100 1.6 1020718
05:00+21в61087100 0.4 1019769
08:00+21всв498492 0.6 1020629
11:00+23в78685 0.0 1020858
14:00+24в89640 0.0 1018765
17:00+22в912730 0.0 1017717
20:00+21всв813770 0.0 1018665
23 апреля, пт
пт2323:00+20всв611780 0.0 1018469
02:00+19всв57810 0.0 1017334
05:00+18св57830 0.0 1016245
08:00+19всв45780 0.0 1016175
11:00+24в45580 0.0 1015399
14:00+27вюв66522 0.0 1012567
17:00+24в79675 0.0 1012245
20:00+20юз55893 0.0 1015180
24 апреля, сб
сб2423:00+19зюз448898 0.0 1015244
02:00+19зюз458495 0.1 1015349
05:00+19з348291 0.1 1014183
08:00+19зсз33805 0.1 1015144
11:00+21ю22685 0.0 1014500
14:00+22ю557212 0.0 1013533
17:00+21ююз55726 0.0 1014560
20:00+19зюз228282 0.0 1015198